Wind_Speed
6 4 3 2 2 2 3 4 5 7 9 10 14 15 14 12 11 9 9 9 7 7 5 6 4 5 8 12 15 13 10 10 7 9 8 7 5 10 8 6 2 6 3 4 10
6 5 3 2 1 1 2 3 4 4 6 8 10 12 14 16 14 11 12 10 9 8 7 6 2 7 12 12 14 7 8 6 7 6 10 12 14 14 6 5 4 9 3 4 9
6 5 4 3 2 1 1 2 2 3 4 6 8 10 11 13 17 14 13 12 11 10 10 9 2 7 12 13 6 3 6 3 6 4 10 12 10 15 8 7 5 8 3 5 9
5 6 5 4 3 2 1 2 2 2 3 3 6 9 11 11 13 19 16 15 14 12 12 9 3 5 9 8 8 4 4 4 7 3 9 16 7 15 8 9 7 3 3 5 14
6 5 5 5 4 3 2 1 2 2 3 3 4 8 12 13 12 20 20 17 15 15 12 10 3 4 3 3 7 6 5 0 6 3 6 11 15 14 12 8 8 4 5 8 14
6 5 5 4 4 4 3 2 2 2 3 3 5 8 12 14 11 15 22 19 18 17 13 11 7 4 1 5 5 3 3 0 2 3 1 6 9 17 12 8 12 5 10 10 11
6 5 5 4 3 3 2 1 1 2 2 3 5 8 12 15 12 10 15 21 21 19 15 14 9 7 2 2 2 5 2 5 6 5 2 4 9 13 11 13 15 8 13 14 13
8 7 6 5 5 3 3 2 2 1 1 3 5 7 12 13 10 8 11 16 25 22 18 17 13 8 6 5 5 6 9 8 6 7 5 6 10 13 11 9 17 14 15 15 13
9 9 8 7 7 6 5 6 6 4 2 1 4 7 10 11 8 8 9 16 25 23 19 18 15 11 9 9 11 10 8 10 11 15 12 10 10 13 15 16 16 16 9 16 16
11 11 10 8 9 9 7 8 9 8 7 3 4 8 12 12 11 5 12 19 26 26 21 20 18 15 16 15 12 3 9 16 21 16 12 13 11 10 14 20 17 17 14 14 15
12 12 12 9 9 11 10 12 10 11 7 6 7 9 14 14 11 5 11 22 28 28 24 23 23 26 22 17 15 16 16 20 12 9 8 7 4 10 11 15 17 24 19 15 15
14 14 14 11 11 11 13 15 13 11 12 11 9 11 14 15 13 8 13 21 27 28 27 26 30 24 20 19 16 16 16 16 9 9 6 8 8 9 17 16 16 18 19 22 12
14 14 15 13 12 12 13 13 13 12 15 6 7 13 19 14 12 10 9 13 18 25 26 27 13 24 24 21 17 17 18 16 14 10 11 9 14 15 17 17 19 23 17 30 23
14 13 14 14 12 12 11 10 8 8 9 4 2 5 17 14 13 11 11 8 10 17 17 19 23 9 18 19 13 18 13 15 15 17 10 7 7 16 15 17 22 19 24 23 29
15 12 13 13 13 12 9 6 3 2 3 1 1 6 14 11 8 17 14 10 5 9 16 8 18 15 12 12 10 14 16 9 10 16 19 15 9 14 22 20 19 19 18 26 25
16 10 13 11 12 9 8 6 5 2 5 3 1 6 15 15 10 17 17 15 9 11 13 13 11 13 9 9 8 12 15 9 8 13 7 25 15 19 12 12 8 8 13 19 27
15 10 11 8 7 7 9 10 5 6 2 4 3 5 10 15 13 15 16 19 17 15 16 12 20 18 14 14 14 13 9 3 1 2 8 13 8 20 21 12 11 11 10 13 22
12 10 9 6 5 9 13 13 7 3 3 4 3 11 12 14 19 15 14 15 19 21 11 6 4 22 23 24 17 12 16 12 7 5 7 6 8 16 21 22 15 10 7 14 20
11 8 8 5 5 10 15 15 4 5 5 4 4 10 14 15 12 16 21 21 20 19 21 5 4 7 16 16 17 21 18 16 14 4 2 6 11 25 18 16 10 5 5 8 19
10 7 5 2 5 10 14 14 9 5 7 8 2 2 5 11 13 13 16 12 13 19 19 21 19 7 8 14 15 24 24 9 8 4 4 9 14 23 17 21 14 7 4 4 13
7 5 4 2 4 7 11 10 12 12 11 10 7 8 7 3 6 15 7 9 15 9 14 27 26 26 20 18 12 7 18 17 12 7 8 2 8 13 15 10 6 7 3 1 7
6 8 10 9 6 8 8 8 10 10 6 6 9 11 16 11 10 8 13 10 9 7 6 15 12 26 25 23 24 18 15 22 15 9 8 6 16 13 12 12 4 7 6 5 5
7 8 10 12 10 11 9 7 7 11 7 7 5 6 9 12 10 10 12 15 18 11 7 9 16 12 19 23 24 23 23 21 24 25 17 7 14 14 13 12 9 13 12 6 6
8 6 10 15 17 16 16 14 14 11 9 10 12 13 13 10 14 12 15 18 20 18 14 12 16 18 20 23 17 20 21 23 25 20 25 24 22 17 11 3 7 15 17 13 11
9 8 12 12 16 19 20 19 20 18 15 15 12 13 13 12 14 15 18 20 22 23 24 17 17 19 23 23 17 25 24 24 26 24 20 23 18 11 9 6 5 12 18 16 11
12 10 11 15 18 19 19 23 25 25 24 23 22 20 17 16 14 12 13 16 19 17 19 20 18 17 19 24 23 24 24 24 21 20 16 10 12 10 11 13 7 10 15 18 13
14 11 12 13 14 17 20 21 24 26 25 26 24 24 20 19 20 18 15 14 14 12 15 19 14 15 18 19 21 25 25 19 23 22 17 15 11 11 17 15 12 13 14 17 16
Wind_Direction
59 58 67 91 135 172 197 207 214 218 217 214 216 218 213 205 195 184 171 186 187 176 153 131 124 69 24 3 356 356 13 23 65 232 232 273 162 184 175 188 331 347 45 117 124
50 43 36 47 87 155 191 205 208 210 212 214 211 213 214 207 199 189 183 187 185 181 174 181 137 28 8 348 355 17 22 41 13 213 249 232 209 202 199 201 53 26 129 155 146
45 38 30 32 35 75 139 163 182 188 191 201 205 203 203 201 197 194 184 190 187 192 189 208 231 21 355 355 359 79 43 34 352 279 213 201 211 197 188 207 106 34 30 160 140
45 45 42 43 52 60 79 129 151 151 153 178 191 191 186 184 188 191 189 189 188 194 203 207 232 42 5 41 62 53 1 11 6 296 216 226 253 205 167 157 164 131 38 132 128
30 34 40 43 47 53 56 93 121 122 121 138 159 172 174 178 188 185 191 187 187 193 202 203 177 111 45 22 21 358 330 16 52 38 200 224 243 212 195 176 174 146 132 151 147
7 14 20 23 29 40 60 73 91 103 117 127 142 161 172 174 178 183 193 189 188 195 200 190 172 156 78 58 25 347 252 340 13 20 273 212 221 208 230 236 181 152 158 154 155
347 348 353 359 352 3 19 42 82 90 112 127 145 161 174 179 171 182 195 197 190 194 200 190 184 199 195 71 307 334 299 294 311 347 6 221 220 232 244 215 181 185 170 169 159
335 332 333 332 326 322 307 300 280 236 153 138 155 169 182 175 175 195 201 200 195 195 202 192 198 200 224 259 262 288 303 296 306 298 293 239 238 244 250 211 198 191 176 188 173
332 325 320 318 316 309 304 290 282 269 248 192 172 163 159 162 183 213 199 194 187 198 204 197 199 212 228 250 260 280 288 316 312 310 257 249 254 251 242 229 205 199 217 193 180
329 322 317 312 298 296 295 285 277 272 277 285 223 175 173 165 159 181 193 180 182 196 201 205 208 221 230 237 245 316 309 315 313 314 265 255 257 247 244 226 224 214 219 214 187
322 314 309 308 290 282 279 275 277 282 297 289 276 217 183 175 159 180 188 181 183 193 201 208 216 223 223 249 258 277 294 310 311 290 239 239 251 230 233 229 227 211 220 225 184
315 312 305 304 290 281 275 280 293 299 302 292 255 214 204 194 180 180 187 188 193 198 204 212 224 226 230 241 255 270 284 304 300 261 235 243 261 254 250 254 241 233 232 219 229
306 304 301 298 289 278 278 283 296 315 310 308 261 227 209 209 201 162 155 184 204 207 210 221 231 234 228 234 254 261 270 284 289 263 246 273 291 270 272 254 248 231 237 219 224
311 309 296 291 284 276 271 275 295 311 312 345 255 201 207 191 190 169 149 152 197 210 213 231 221 171 214 234 232 263 283 287 260 250 235 257 284 295 296 284 262 251 234 226 228
311 319 294 284 276 267 261 259 246 288 344 340 133 180 189 179 187 183 168 174 185 183 193 204 202 211 212 216 254 259 304 296 265 246 253 268 256 294 295 291 295 262 252 229 233
304 307 301 296 279 262 236 217 211 235 251 155 144 182 184 188 174 180 179 200 210 231 237 241 222 223 216 233 245 284 305 273 244 237 263 266 255 291 278 314 316 250 249 226 219
317 300 296 296 274 241 207 196 202 224 199 118 184 215 212 186 175 183 192 205 213 229 248 262 241 233 226 246 253 260 261 116 343 180 233 277 219 273 304 296 310 279 263 236 225
326 308 300 291 240 202 194 191 217 248 173 155 214 211 222 205 209 202 221 240 234 232 253 286 250 211 216 224 235 258 249 208 202 200 245 217 240 273 302 299 306 279 247 217 226
330 309 296 275 208 189 192 199 211 213 208 237 164 206 221 219 218 230 239 252 254 249 233 268 262 172 218 236 240 246 240 249 240 188 271 250 257 281 303 328 315 231 282 272 218
318 308 298 253 177 185 195 206 214 219 246 263 253 238 158 188 202 230 250 264 257 255 244 244 280 302 241 218 251 242 245 212 204 134 231 270 274 273 308 312 303 243 311 274 224
306 267 249 194 179 194 212 221 233 246 276 287 265 244 231 266 220 224 229 271 267 269 247 242 249 267 262 257 264 227 221 226 237 207 167 235 270 297 313 318 258 248 266 209 168
285 251 242 244 217 209 222 222 233 216 238 261 257 252 253 259 254 245 227 231 224 234 249 234 245 252 264 264 262 259 266 242 220 217 215 241 269 293 307 318 274 234 213 93 128
296 258 245 244 237 234 230 234 253 257 250 246 219 244 247 259 261 258 249 239 236 254 233 239 226 245 265 261 259 257 257 251 243 242 238 209 260 286 309 295 303 204 207 195 122
312 266 245 251 255 257 255 263 263 262 269 268 256 264 263 252 244 238 229 224 233 250 240 263 250 246 239 253 263 254 248 238 238 231 235 235 256 268 292 294 303 220 200 213 216
320 284 269 261 260 263 270 268 270 268 262 271 269 268 277 269 253 251 241 233 235 247 261 260 248 253 257 261 262 244 249 243 235 242 228 248 241 254 260 240 244 227 217 218 216
334 307 278 267 266 268 269 272 274 276 278 278 274 268 275 274 263 249 244 245 249 247 245 241 249 254 258 256 246 236 239 235 233 217 217 226 224 224 212 218 234 239 246 228 220
335 322 307 296 287 281 277 276 277 277 274 273 275 271 264 258 256 252 248 241 243 250 247 245 244 248 253 252 244 241 217 224 223 218 222 218 254 231 227 232 241 239 234 238 238
Height
3143 3143 3142 3142 3142 3142 3142 3143 3143 3144 3146 3147 3149 3151 3153 3156 3158 3160 3162 3162 3162 3163 3165 3166 3167 3167 3167 3166 3165 3164 3163 3161 3162 3161 3163 3166 3166 3168 3170 3172 3172 3173 3171 3173 3172
3144 3143 3142 3142 3142 3142 3142 3142 3143 3144 3144 3146 3147 3149 3151 3154 3157 3160 3162 3161 3162 3164 3165 3166 3167 3167 3167 3165 3165 3164 3163 3163 3163 3163 3163 3164 3166 3169 3172 3173 3174 3173 3173 3173 3174
3145 3144 3143 3142 3142 3142 3142 3142 3143 3143 3144 3144 3146 3147 3149 3152 3156 3158 3161 3161 3163 3164 3166 3166 3167 3168 3167 3165 3164 3164 3165 3164 3163 3162 3162 3164 3166 3169 3171 3173 3175 3175 3175 3175 3175
3145 3144 3143 3143 3142 3142 3142 3142 3143 3143 3143 3144 3145 3146 3148 3151 3156 3156 3159 3160 3163 3164 3165 3167 3168 3168 3167 3166 3165 3165 3165 3165 3164 3163 3163 3164 3167 3168 3172 3173 3175 3176 3177 3177 3177
3146 3145 3144 3143 3143 3142 3142 3142 3143 3143 3144 3144 3145 3146 3148 3150 3152 3154 3157 3160 3162 3164 3165 3167 3168 3168 3168 3167 3166 3165 3165 3166 3165 3165 3164 3166 3167 3169 3170 3172 3174 3175 3176 3178 3178
3146 3145 3144 3144 3143 3143 3143 3142 3143 3143 3144 3144 3145 3146 3148 3151 3151 3152 3155 3159 3162 3164 3166 3167 3168 3168 3168 3167 3166 3166 3166 3167 3166 3166 3165 3166 3166 3168 3169 3171 3173 3175 3176 3178 3179
3145 3145 3144 3143 3143 3142 3142 3142 3142 3143 3143 3143 3144 3145 3147 3150 3150 3152 3154 3157 3160 3163 3165 3166 3167 3168 3168 3168 3167 3166 3168 3166 3165 3165 3165 3165 3166 3165 3167 3170 3172 3173 3175 3177 3178
3145 3144 3143 3143 3142 3142 3142 3142 3142 3142 3143 3143 3143 3144 3146 3148 3150 3151 3152 3154 3158 3161 3163 3164 3166 3167 3168 3168 3167 3167 3167 3166 3166 3165 3165 3165 3165 3164 3165 3168 3169 3171 3173 3175 3177
3144 3143 3142 3142 3141 3140 3141 3140 3140 3141 3142 3143 3144 3144 3146 3148 3149 3149 3151 3152 3155 3159 3160 3162 3164 3166 3167 3168 3167 3166 3167 3166 3166 3165 3164 3165 3163 3163 3163 3166 3169 3170 3172 3173 3174
3142 3142 3141 3141 3140 3139 3139 3139 3138 3139 3140 3142 3143 3146 3145 3146 3147 3147 3148 3150 3153 3157 3158 3160 3162 3164 3165 3166 3164 3166 3167 3166 3165 3163 3162 3162 3163 3162 3161 3162 3165 3168 3169 3171 3173
3141 3139 3139 3139 3138 3137 3137 3136 3140 3140 3139 3140 3141 3141 3141 3144 3145 3146 3146 3149 3151 3153 3156 3158 3160 3159 3162 3165 3165 3165 3165 3165 3163 3161 3160 3161 3161 3161 3161 3161 3162 3163 3164 3168 3171
3138 3137 3136 3136 3135 3135 3134 3134 3136 3139 3137 3136 3137 3138 3139 3141 3143 3144 3145 3147 3149 3151 3154 3157 3155 3159 3162 3163 3164 3164 3164 3163 3163 3161 3160 3160 3159 3160 3159 3159 3160 3161 3162 3164 3167
3136 3135 3133 3133 3133 3132 3132 3133 3133 3134 3133 3133 3132 3133 3136 3140 3142 3143 3144 3145 3148 3150 3152 3153 3156 3156 3158 3161 3162 3163 3162 3161 3163 3161 3160 3158 3157 3156 3155 3155 3156 3157 3158 3160 3164
3133 3132 3131 3130 3132 3130 3130 3131 3132 3132 3131 3132 3130 3130 3133 3137 3140 3142 3143 3146 3146 3148 3151 3152 3153 3153 3156 3158 3161 3160 3160 3158 3158 3159 3160 3160 3156 3152 3151 3150 3149 3151 3153 3155 3159
3130 3129 3127 3126 3127 3127 3129 3129 3131 3132 3132 3132 3130 3130 3132 3137 3138 3140 3142 3144 3146 3147 3150 3149 3150 3152 3154 3156 3159 3157 3157 3155 3156 3157 3158 3158 3157 3149 3149 3147 3144 3146 3147 3150 3153
3127 3126 3124 3124 3124 3125 3126 3128 3130 3133 3129 3130 3130 3130 3132 3135 3137 3139 3140 3143 3145 3146 3147 3148 3149 3149 3152 3154 3155 3155 3154 3154 3155 3157 3157 3153 3155 3145 3144 3145 3143 3142 3144 3146 3148
3123 3122 3121 3121 3121 3122 3124 3127 3131 3128 3128 3129 3128 3129 3131 3134 3136 3138 3139 3140 3142 3144 3144 3144 3143 3146 3148 3149 3151 3152 3153 3155 3159 3159 3154 3149 3150 3143 3142 3141 3140 3140 3141 3142 3146
3121 3120 3119 3118 3118 3120 3122 3127 3127 3125 3125 3126 3126 3128 3130 3132 3135 3137 3138 3139 3140 3141 3142 3141 3139 3140 3143 3144 3147 3148 3149 3151 3156 3157 3149 3148 3145 3141 3140 3138 3137 3136 3136 3139 3142
3119 3118 3117 3116 3116 3118 3122 3123 3123 3124 3124 3125 3125 3126 3127 3130 3133 3134 3135 3135 3137 3138 3142 3139 3137 3136 3140 3141 3144 3144 3144 3147 3146 3148 3148 3144 3141 3137 3137 3135 3135 3135 3135 3134 3137
3118 3116 3116 3115 3115 3117 3120 3121 3122 3123 3122 3123 3124 3124 3125 3127 3129 3131 3133 3131 3131 3134 3136 3137 3136 3136 3137 3138 3138 3137 3140 3143 3144 3148 3149 3141 3139 3137 3134 3134 3134 3134 3135 3133 3134
3116 3115 3115 3115 3115 3116 3118 3119 3120 3120 3120 3122 3122 3122 3123 3124 3125 3127 3128 3129 3129 3129 3131 3133 3136 3132 3134 3134 3134 3134 3134 3137 3139 3140 3141 3144 3135 3134 3133 3132 3132 3134 3134 3133 3133
3114 3114 3114 3114 3116 3114 3115 3116 3117 3117 3118 3119 3119 3120 3121 3121 3121 3123 3123 3126 3126 3126 3128 3128 3130 3128 3126 3128 3130 3131 3130 3131 3133 3136 3136 3136 3133 3132 3132 3131 3130 3132 3134 3134 3135
3111 3112 3112 3112 3113 3112 3113 3114 3114 3114 3116 3116 3117 3117 3117 3117 3119 3118 3120 3122 3122 3123 3124 3124 3124 3123 3121 3123 3123 3124 3125 3126 3128 3130 3131 3133 3131 3130 3130 3130 3130 3130 3133 3136 3137
3111 3110 3110 3110 3109 3110 3111 3112 3112 3112 3113 3113 3114 3114 3113 3113 3113 3113 3115 3117 3117 3118 3120 3120 3120 3118 3116 3115 3118 3118 3119 3121 3122 3123 3124 3125 3126 3128 3129 3128 3127 3128 3130 3134 3137
3108 3108 3107 3106 3106 3107 3107 3107 3107 3109 3110 3110 3110 3110 3109 3109 3109 3108 3110 3111 3113 3113 3114 3115 3113 3113 3112 3112 3112 3113 3114 3115 3115 3117 3119 3120 3122 3124 3125 3126 3127 3127 3129 3132 3135
3107 3106 3105 3104 3103 3103 3103 3102 3102 3103 3104 3104 3104 3105 3107 3105 3105 3104 3105 3106 3107 3108 3108 3108 3107 3107 3106 3107 3107 3106 3106 3109 3110 3112 3115 3117 3118 3121 3122 3123 3125 3125 3127 3129 3132
3104 3103 3101 3101 3100 3100 3099 3098 3097 3096 3099 3097 3096 3096 3099 3098 3098 3100 3100 3101 3101 3102 3103 3103 3102 3101 3099 3101 3102 3101 3101 3102 3106 3108 3110 3112 3115 3116 3118 3119 3120 3121 3123 3126 3128